Location: La Maison-Meane
(44.4370°N, 6.8640°E)
Time: 14:05:20
(UTC+00:00)

Daily predictions for brighter satellites

Satellite Brightness Start Highest point End
(mag) Time Altitude Azimuth Time Altitude Azimuth Time Altitude Azimuth
SL-8 R/B 3.7 19:51:11 10° WNW 19:56:00 88° SSW 20:00:50 10° ESE
Cosmos 2228 4.1 19:54:58 10° NNE 19:58:38 28° ENE 20:02:17 10° SE
Cosmos 1455 Rocket 4.2 19:56:49 10° NNW 20:00:57 44° W 20:05:02 10° SSW
Cosmos 1697 Rocket 3.2 19:57:09 10° NNW 20:02:34 47° ENE 20:07:57 10° SE
Cosmos 1980 Rocket 3.6 19:58:09 10° N 20:02:56 27° NE 20:07:42 10° ESE
H-2A R/B 4.0 20:00:01 10° SSW 20:03:27 32° W 20:06:57 10° NNW
Resurs 01 Rocket 2.0 20:11:49 10° S 20:16:13 67° WSW 20:20:40 10° NNW
COSMOS 2406 3.6 20:14:03 10° S 20:19:27 43° ESE 20:24:50 10° NE
Cosmos 2184 Rocket 4.0 20:18:38 10° N 20:24:49 71° E 20:31:02 10° SSE
Cosmos 1833 Rocket 2.6 20:19:24 10° SSW 20:24:59 80° ESE 20:30:39 10° NNE
H-2A R/B 3.0 20:22:31 10° N 20:26:52 54° WNW 20:31:15 10° SSW
Cosmos 1867 4.5 20:24:49 10° NNW 20:29:58 40° NE 20:34:38 12° ESE
Cosmos 1536 Rocket 3.7 20:26:31 10° SSW 20:30:50 77° W 20:35:13 10° N
Cosmos 1703 3.2 20:28:09 10° S 20:31:59 87° E 20:35:52 10° N
CARTOSAT-1 3.5 20:29:15 11° SSE 20:33:29 90° NW 20:37:49 10° NNW
Cosmos 1741 Rocket 4.2 20:29:42 10° NNW 20:35:01 73° WSW 20:40:03 11° S
USA 245 3.1 20:31:59 13° SSE 20:35:23 71° ENE 20:38:36 10° N
Cosmos 1606 Rocket 4.0 20:32:33 10° N 20:36:44 45° ENE 20:39:49 17° SE
Ariane Rocket 3.4 20:32:28 10° S 20:37:32 64° WSW 20:42:35 10° NNW
Cosmos 2322 Rocket 4.5 20:36:26 10° NNE 20:38:58 13° NE 20:41:29 10° ENE
CZ-4B R/B 2.9 20:43:52 10° N 20:46:28 31° WNW 20:49:05 10° SW
ARIANE 5 R/B 3.7 20:44:14 17° ESE 20:47:01 32° ENE 20:50:56 10° N
Terra 2.3 20:44:04 17° SE 20:47:23 45° ENE 20:51:56 10° N
SPOT 3 Rocket 3.7 20:44:20 12° S 20:49:06 78° WSW 20:54:22 10° NNW
ATLAS 2AS CENTAUR R/B 4.3 20:44:35 10° WNW 20:50:03 25° WSW 20:55:16 10° SSW
SPOT 5 2.6 20:46:56 18° SSE 20:50:07 69° ENE 20:54:26 10° N
RESURS DK-1 3.7 20:49:48 10° NW 20:53:33 34° WSW 20:56:54 12° S
USA 276 3.8 20:50:59 10° NW 20:53:43 29° N 20:56:26 10° ENE
Cosmos 1726 Rocket 3.6 20:54:23 10° N 20:58:40 60° E 21:01:14 23° SSE
Cosmos 2082 Rocket 2.2 20:57:31 10° SSW 21:03:10 68° ESE 21:08:50 10° NNE
Cosmos 2327 Rocket 4.5 20:58:43 10° N 21:05:03 85° E 21:09:49 18° S
Helios 1A Rocket 2.9 21:04:55 22° SSE 21:07:29 85° W 21:11:36 10° NNW
Spot 2 Rocket 3.6 21:04:02 18° S 21:07:50 80° WSW 21:12:59 10° NNW
Cosmos 1328 3.8 21:05:03 15° S 21:08:16 85° W 21:12:17 10° N
ASTEX 1 4.3 21:04:58 10° NNE 21:09:31 34° E 21:11:40 24° SE
Cosmos 2084 Rocket 3.5 21:08:02 10° NW 21:11:54 58° SW 21:13:53 27° SSE
Nadezhda 1 Rocket 4.1 21:07:29 10° SSW 21:13:33 74° W 21:19:39 10° N
Cosmos 2360 Rocket 4.4 21:10:31 10° N 21:13:41 15° NE 21:16:52 10° ENE
Cosmos 1932 4.4 21:10:49 10° SSW 21:16:55 65° ESE 21:23:11 10° NE
Cosmos 2181 Rocket 4.4 21:17:08 23° SSE 21:20:34 46° E 21:26:29 10° NNE
ERS-1 Rocket 3.3 21:22:07 21° S 21:25:27 63° WSW 21:30:28 10° NNW
X-37B 2.0 21:23:39 10° W 21:25:27 22° SW 21:25:27 22° SW
Cosmos 1892 2.6 21:26:27 36° SSE 21:27:46 65° E 21:31:32 10° NNE
Cosmos 1302 Rocket 4.4 21:29:03 10° SSW 21:34:11 63° WNW 21:39:22 10° NNE
Cosmos 1892 Rocket 4.0 21:38:01 19° SSW 21:41:02 58° W 21:45:21 10° N
ASTRO F (AKARI) 4.5 21:40:19 46° S 21:41:14 78° WSW 21:44:45 10° NNW
Cosmos 968 Rocket 3.9 21:38:46 10° NNW 21:43:52 56° WSW 21:46:30 27° S
Cosmos 1697 Rocket 4.2 21:41:36 10° NW 21:46:16 27° WSW 21:49:50 15° SSW
Cosmos 1980 Rocket 2.6 21:41:43 10° NNW 21:47:16 54° WSW 21:50:07 27° S
Cosmos 1408 3.2 21:48:44 29° SW 21:50:06 48° W 21:53:29 10° N
SL-16 R/B 2.8 21:44:39 10° NNW 21:50:08 46° ENE 21:52:57 26° ESE
Cosmos 1626 Rocket 3.6 21:50:06 43° SSE 21:51:15 59° E 21:55:32 10° NNE
Cosmos 2058 Rocket 3.3 21:47:07 10° NNW 21:51:31 64° W 21:53:20 34° SSW
ATLAS 5 CENTAUR R/B 1.3 21:50:51 18° SW 21:53:30 73° NW 21:57:37 10° NE
SL-8 Rocket 4.0 21:48:32 10° N 21:54:47 84° W 21:58:01 30° S
USA 267 3.4 21:48:52 10° ENE 21:55:10 48° SE 21:59:30 20° SSW
In-Cosmos 22 Rocket 4.2 21:59:05 27° SSW 22:02:11 80° W 22:07:38 10° N
SJ 16-02 2.5 21:58:11 10° N 22:02:15 34° ENE 22:03:35 28° E
SL-4 R/B 3.4 22:04:44 20° ENE 22:04:44 20° ENE 22:06:04 10° ENE
CSL-04 DEB 4.5 21:59:57 10° NNE 22:04:21 88° W 22:05:49 41° SSW
Cosmos 1825 2.2 22:08:00 52° SW 22:08:46 71° W 22:12:31 10° N
Cosmos 1867 4.5 22:08:32 10° NW 22:13:31 37° WSW 22:15:18 29° SSW
Cosmos 2366 rocket 4.1 22:08:50 10° NNW 22:15:10 71° W 22:18:15 32° S
Cosmos 1869 3.4 22:13:54 10° NNW 22:17:47 63° W 22:18:25 53° SW
Cosmos 2218 Rocket 4.3 22:15:17 10° NNW 22:21:37 64° W 22:24:42 31° SSW
ARIANE 5 R/B 4.2 22:21:46 21° SW 22:23:28 26° W 22:27:12 10° NW
Cosmos 2322 Rocket 2.5 22:18:36 10° NNW 22:24:15 61° ENE 22:26:28 36° SE
GP-B 4.1 22:20:31 10° NNW 22:24:41 41° W 22:26:27 28° SW
Terra 3.7 22:22:57 15° SW 22:25:20 21° W 22:28:56 10° NW
USA 234 4.0 22:22:50 10° E 22:29:05 50° NNE 22:35:23 10° NW
USA 276 3.2 22:26:40 10° WNW 22:28:42 38° WNW 22:28:42 38° WNW
FALCON 9 DEB 4.4 22:28:31 10° WNW 22:30:31 30° W 22:30:31 30° W
BREEZE-M DEB (TANK) 4.2 22:33:48 10° WNW 22:37:09 62° NNE 22:50:08 10° E
Cosmos 1633 2.8 22:39:01 58° W 22:39:01 58° W 22:42:26 10° N
Cosmos 1758 Rocket 3.5 22:42:24 59° SSW 22:43:09 76° W 22:47:34 10° N
Cosmos 2333 Rocket 3.3 22:39:44 10° NNW 22:45:05 37° NE 22:48:05 22° ESE
Cosmos 2082 Rocket 4.4 22:43:21 10° W 22:47:47 23° NW 22:52:13 10° N
Cosmos 1606 2.6 22:50:31 10° N 22:54:21 82° W 22:54:21 82° W
Cosmos-2242 3.1 22:50:35 10° NNW 22:54:46 60° W 22:55:10 57° WSW
Cosmos 1812 Rocket 4.1 22:51:13 10° NNW 22:55:29 47° W 22:56:09 44° WSW
ADEOS Rocket 3.5 22:53:13 37° SSE 22:56:33 83° ENE 23:04:21 10° NNW
ISS -1.2 23:00:48 13° ENE 23:00:48 13° ENE 23:01:18 10° ENE
Cosmos 1340 Rocket 3.0 22:58:42 57° E 22:58:42 57° E 23:02:23 10° NNE
Cosmos 2360 Rocket 2.2 22:53:02 10° NNW 22:58:44 73° ENE 23:00:31 45° SE
Gbstr 26 Del rocket 3.0 22:59:00 50° WSW 23:00:07 86° NNW 23:05:07 10° ENE
Cosmos 375 4.3 23:05:37 77° SSW 23:05:56 88° SE 23:10:46 10° NE
Cosmos 1821 Rocket 4.3 23:03:15 10° NNW 23:09:18 55° W 23:11:22 38° SSW
BREEZE-M DEB (TANK) 3.8 23:12:25 32° ENE 23:12:25 32° ENE 23:15:23 10° ENE
SL-27 R/B 4.1 23:13:18 25° ENE 23:13:18 25° ENE 23:15:03 10° NE
NOSS 3-2 (A) 4.3 23:13:40 28° ESE 23:13:45 28° ESE 23:18:46 10° NE
Cosmos 44 3.0 23:14:09 71° SSW 23:14:38 87° ESE 23:19:08 10° NE
Meteor 2-11 Rocket 4.5 23:09:21 10° N 23:15:29 73° E 23:17:23 46° SSE
Cosmos 1833 4.1 23:14:26 53° S 23:15:48 80° ESE 23:21:26 10° NNE
Cosmos 972 Rocket 4.1 23:11:50 10° NNW 23:17:09 81° ENE 23:18:42 50° SSE
ALOS 2 2.8 23:21:37 53° WSW 23:21:52 54° W 23:26:11 10° NNW
Cosmos 1782 4.4 23:18:34 10° NNE 23:21:53 25° ENE 23:22:20 24° E
CENTAUR R/B 3.2 23:22:31 31° ESE 23:23:06 32° ESE 23:28:52 10° NE
ERS-2 2.5 23:19:54 10° NNE 23:22:56 58° NE 23:22:56 58° NE
Cosmos 1605 Rocket 4.2 23:19:49 10° N 23:26:12 65° E 23:28:27 41° SE
Cosmos 2297 Rocket 4.3 23:29:19 12° ESE 23:30:17 12° E 23:32:30 10° ENE
Cosmos 2058 3.6 23:29:58 41° W 23:30:25 43° WNW 23:34:26 10° N
Cosmos 2151 4.1 23:31:03 32° E 23:31:11 33° E 23:35:02 10° NNE
COSMOS 2428 3.6 23:26:06 10° NNW 23:31:33 43° ENE 23:34:38 23° ESE
H-2A R/B 4.3 23:28:07 10° N 23:32:05 42° WNW 23:32:48 38° W
Cosmos 1777 Rocket 4.5 23:27:24 10° NNW 23:32:25 45° WSW 23:33:07 42° SW
Cosmos 1953 Rocket 3.7 23:33:03 58° WSW 23:33:31 62° W 23:37:54 10° N
SL-16 R/B 3.3 23:29:13 10° NW 23:33:58 28° WSW 23:34:48 27° WSW
Cosmos 2219 Rocket 2.5 23:28:53 10° NNW 23:34:31 62° ENE 23:36:41 37° SE
USA 267 3.7 23:31:51 10° NE 23:38:16 60° NNW 23:44:40 10° WSW
ATLAS 5 CENTAUR R/B 4.3 23:36:53 10° WNW 23:38:57 14° NNW 23:41:08 10° N
SJ 16-02 2.9 23:37:02 10° NW 23:40:31 24° W 23:40:31 24° W
SL-4 R/B 3.1 23:40:05 19° WNW 23:42:07 36° NNW 23:45:35 10° NE
Cosmos 2322 3.9 23:38:00 10° NNW 23:43:42 68° ENE 23:45:45 39° SE
Cosmos 1898 Rocket 4.2 23:40:01 10° N 23:45:01 46° ENE 23:47:02 31° ESE
Cosmos 2221 2.6 23:47:46 10° NNW 23:52:05 61° W 23:52:14 61° WSW
PSLV R/B 3.7 23:50:09 10° N 23:54:54 76° WNW 23:55:36 62° SW
